Home   Weather   Prievidza   Past weeks

Flag for Slovakia Past Weather in Prievidza, Slovakia — Yesterday and Last 2 Weeks

Now
57 °F

Passing clouds.


Feels Like: 57 °F
Forecast: 48 / 72 °F
Wind: No wind

Location: Prievidza

Current Time: Sep 28, 2016 at 8:52:19 PM

Latest Report: Sep 28, 2016 at 8:00 PM


Visibility: 7 mi

Pressure: 30.29 "Hg

Humidity: 83%

Dew Point: 52 °F

Location of PrievidzaLocation

Past Weather in Prievidza — Graph

°F

Prievidza Temperature Yesterday

Maximum temperature yesterday: 69 °F (at 5:00 PM)
Minimum temperature yesterday: 42 °F (at 7:00 AM)
Average temperature yesterday: 52 °F

High & Low Weather Summary for the Past Weeks

 TemperatureHumidityPressure
High85 °F (Sep 14, 4:00 PM)97% (Sep 27, 5:00 AM)30.40 "Hg (Sep 27, 5:00 AM)
Low38 °F (Sep 23, 7:00 AM)34% (Sep 14, 3:00 PM)29.74 "Hg (Sep 19, 3:00 PM)
Average59 °F75%30.07 "Hg
* Reported Sep 13 7:00 PM — Sep 28 7:00 PM, Prievidza, Weather by CustomWeather, © 2016

Note: Actual official high and low records may vary slightly from our data, if they occured in-between our weather recording intervals... More about our weather records

Advertising

Prievidza Weather History for the Previous 24 Hours

Scroll right to see more
 ConditionsComfort  
Time TempWeatherWind HumidityBarometerVisibility
7:00 PM
Wed, Sep 28
60 °FOvercast.No wind74%30.28 "Hg8 mi
6:00 PM64 °FOvercast.N/A62%30.28 "Hg9 mi
3:00 PM69 °FPartly sunny.6 mph62%30.27 "Hg12 mi
2:00 PM69 °FScattered clouds.5 mph62%30.28 "Hg11 mi
1:00 PM67 °FPartly sunny.5 mph62%30.30 "Hg12 mi
12:00 PM67 °FPartly sunny.2 mph62%30.34 "Hg12 mi
11:00 AM63 °FScattered clouds.N/A62%30.34 "Hg11 mi
10:00 AM57 °FScattered clouds.N/A76%30.37 "Hg9 mi
9:00 AM51 °FPassing clouds.No wind87%30.38 "Hg7 mi
8:00 AM44 °FFog.No wind94%30.40 "Hg6 mi
7:00 AM41 °FQuite cool.No wind95%30.40 "Hg7 mi
6:00 AM42 °FFog.No wind95%30.40 "Hg5 mi
5:00 AM43 °FQuite cool.No wind94%30.40 "Hg7 mi
4:00 AM44 °FFog.No wind94%30.40 "Hg4 mi
3:00 AM45 °FQuite cool.No wind93%30.40 "Hg7 mi
2:00 AM45 °FQuite cool.1 mph94%30.40 "Hg6 mi
1:00 AM45 °FCool.No wind89%30.40 "Hg6 mi
12:00 AM47 °FCool.N/A90%30.39 "Hg7 mi
11:00 PM
Tue, Sep 27
48 °FCool.N/A88%30.39 "Hg6 mi
10:00 PM50 °FClear.1 mph86%30.37 "Hg9 mi
9:00 PM52 °FClear.N/A83%30.36 "Hg9 mi
8:00 PM55 °FClear.No wind75%30.34 "Hg12 mi
Weather by CustomWeather, © 2016

See weather overviewHow to use our weather pages